Погода в Батаке

Россия / Республика Северная Осетия — Алания     43°22′39″N   44°32′12″E
темп.,
°C
ветер,
м/с
пор.,
м/с
влажн.,
%
обл.,
%
осадки,
мм/ч
давл.,
гПа
погр.,
м
6 мая, чт
чт600:00+8юв387935 0.0 1017184
03:00+7юв22756 0.0 101733
06:00+8юв24780 0.0 1017148
09:00+14в46560 0.0 1015744
12:00+17в56480 0.0 10141147
15:00+18в554724 0.0 10121223
18:00+14в58625 0.0 1013418
21:00+9вюв3670100 0.0 1015140
7 мая, пт
пт700:00+9ююв116783 0.0 101510
03:00+8зюз2280100 0.0 101520
06:00+9зюз2280100 0.0 101781
09:00+14зсз2263100 0.0 1017422
12:00+18ссз335160 0.0 1017798
15:00+19с33453 0.0 10161004
18:00+18св22622 0.0 101729
21:00+14вюв11645 0.0 101911
8 мая, сб
сб800:00+12ююв21674 0.0 101810
03:00+11ююв11695 0.0 101810
06:00+12ююв11720 0.0 101816
09:00+18в35540 0.0 1016708
12:00+21всв56455 0.0 10141169
15:00+22в5546100 0.0 10131320
18:00+18в5869100 0.0 1013357
21:00+14вюв337998 0.0 101252
9 мая, вс
вс900:00+13юз11834 0.0 101110
03:00+11ююз11926 0.0 100910
06:00+12зсз1289100 0.0 100963
09:00+15зсз2280100 0.0 1009204
12:00+19ссз2266100 0.0 1008454
15:00+21ссз33595 0.0 1008917
18:00+9сз101788100 0.1 1015792
21:00+6сз71592100 3.6 10221015
10 мая, пн
пн1000:00+6зсз3995100 3.3 10241108
03:00+5зюз378899 6.8 1024667
06:00+5ю4590100 0.3 1024274
09:00+6ю4484100 2.3 1024350
12:00+10ю4265100 0.1 1022892
15:00+13ссз01535 0.1 10191341
18:00+12всв236440 0.0 1020191
21:00+8вюв227280 0.0 102225